Wind_Speed
49 42 43 39 38 42 48 40 30 26 30 34 33 30 14 12 7 8 8 1 4 5 4 5 5 4 4 5 6 8 9 11 14 15 15 15 14 14 15 15 15 15 13 13 12 12 12 12 11
48 47 44 43 44 49 49 46 31 25 32 35 35 38 20 13 12 12 6 3 4 3 2 2 2 3 3 1 6 9 9 10 12 14 15 14 13 14 15 15 15 14 13 13 12 13 11 9 7
52 48 43 47 48 54 54 48 36 30 36 42 36 40 26 17 20 16 9 5 8 8 7 4 5 5 4 5 4 8 11 11 13 14 15 16 18 17 17 15 15 13 13 12 12 12 11 9 6
57 54 52 45 50 55 53 48 42 37 39 48 42 41 31 20 28 18 16 8 13 12 9 8 4 4 3 5 7 7 9 12 14 16 18 18 17 16 16 15 14 12 12 11 11 12 11 10 6
54 50 54 53 54 60 58 54 48 39 44 51 46 42 35 25 28 24 24 14 15 15 13 11 6 2 2 6 6 9 9 11 14 16 18 18 17 15 14 15 13 13 11 9 11 11 11 10 8
49 47 43 57 59 62 61 61 51 42 44 50 52 47 38 33 31 27 30 21 22 18 18 16 12 8 7 3 6 6 9 11 14 16 18 17 16 14 15 15 13 11 11 10 11 12 12 12 11
67 57 57 51 54 57 66 63 51 49 45 52 57 53 41 40 41 32 32 34 26 24 21 18 15 13 11 6 4 8 9 11 13 16 18 17 15 14 13 13 13 11 11 11 12 13 16 18 18
74 68 69 60 62 65 68 65 63 52 51 60 57 53 43 47 50 38 36 37 35 27 24 22 19 15 12 7 3 5 8 10 13 15 17 17 15 14 12 12 12 12 11 12 13 13 14 14 16
80 73 75 76 73 74 80 66 65 62 61 61 60 53 47 50 56 49 43 42 38 34 30 24 24 22 17 15 9 5 4 6 10 14 16 18 16 16 16 13 12 13 12 13 13 12 12 11 12
78 78 81 81 79 75 74 70 69 60 59 65 67 58 61 57 57 52 45 46 43 36 34 30 27 27 25 20 16 12 6 5 6 10 13 14 17 19 21 18 16 14 14 14 14 12 11 12 12
75 75 81 83 88 84 81 77 75 68 60 67 70 66 61 62 59 58 49 47 48 43 39 39 34 31 29 25 21 17 14 8 4 5 8 10 10 14 18 22 20 18 16 14 13 13 12 10 9
77 80 78 83 87 87 86 86 84 78 70 70 73 70 68 66 61 64 56 50 52 49 43 45 42 36 34 32 28 25 19 15 9 6 4 6 8 11 12 16 18 21 19 16 14 12 10 11 9
86 87 86 84 87 89 91 92 92 85 88 84 85 76 71 66 65 68 63 58 53 53 49 47 47 44 38 36 33 29 29 21 15 11 7 3 5 8 13 12 13 14 20 19 17 16 12 9 8
88 89 93 92 93 91 91 92 95 94 96 93 89 84 79 75 69 75 72 67 61 58 55 52 51 50 46 42 38 34 28 30 22 16 13 8 5 5 9 10 10 12 12 19 19 19 16 14 9
91 93 94 94 99 102 110 102 91 91 102 99 96 95 87 79 73 74 77 73 67 64 61 56 54 53 54 53 47 42 35 30 34 31 21 14 11 7 6 10 9 8 11 10 13 20 21 18 17
92 95 99 94 105 106 115 110 107 108 102 105 107 102 98 90 81 74 80 80 74 68 66 63 61 63 57 55 51 48 43 36 32 31 32 22 14 11 10 11 11 10 9 10 12 12 13 19 20
76 77 89 95 105 112 119 113 108 111 113 113 110 114 107 99 89 82 80 84 81 75 71 67 49 66 60 57 52 51 47 43 37 32 32 30 24 16 15 14 16 12 13 10 10 12 14 11 12
71 74 79 77 84 94 106 123 117 117 119 117 117 114 115 109 102 90 88 87 86 82 79 73 78 67 66 63 59 52 50 48 44 41 36 31 29 23 22 18 18 18 14 15 12 14 15 15 12
75 81 85 86 88 97 99 111 106 115 130 130 128 123 114 110 114 108 94 94 92 89 85 84 84 86 85 75 65 61 57 56 52 49 41 34 31 29 30 24 22 20 20 18 18 14 17 19 15
84 93 88 87 90 104 107 106 102 103 108 121 136 131 123 119 110 113 113 103 98 96 91 86 87 87 86 80 75 70 62 57 56 52 45 38 37 37 34 31 26 25 24 23 23 19 19 21 20
84 81 81 78 82 89 104 112 107 105 103 107 109 120 131 128 122 112 116 115 111 105 100 90 89 89 89 83 79 74 70 63 56 51 48 48 46 44 39 35 33 28 27 25 24 24 20 22 24
69 67 63 67 69 75 91 93 103 105 111 115 115 117 119 133 136 131 120 124 122 114 111 105 96 89 90 89 85 75 70 63 60 59 54 52 51 44 40 35 38 33 30 30 28 27 26 23 25
63 52 55 55 59 62 79 81 85 100 110 111 118 118 115 112 130 138 138 123 122 122 122 117 105 95 92 91 87 79 72 70 68 65 58 52 51 44 41 38 37 36 33 33 34 32 29 26 27
57 49 48 50 55 58 67 72 77 88 97 111 115 116 116 108 109 130 135 130 125 122 120 120 111 96 91 89 89 85 77 75 73 69 62 56 54 47 44 44 40 41 38 38 35 33 32 31 31
53 45 46 44 47 51 57 66 67 77 85 96 108 112 114 111 106 113 131 135 132 130 125 126 121 105 93 88 89 87 83 77 76 74 69 66 61 55 54 54 52 49 46 39 38 36 36 37 36
54 46 40 39 42 49 52 61 64 72 79 86 96 104 111 109 106 110 120 130 133 132 132 126 126 115 102 94 89 86 86 82 77 77 69 67 67 67 65 62 59 55 52 49 44 43 43 40 40
57 45 41 37 37 43 48 56 59 70 75 80 86 94 101 108 112 106 110 124 136 135 138 138 132 122 115 102 89 83 80 77 80 75 74 72 66 70 68 66 64 62 54 53 48 45 47 43 41
59 46 40 35 35 39 45 50 53 58 64 71 76 81 86 93 104 102 105 114 129 138 136 138 128 126 120 105 96 95 87 86 78 82 78 76 75 75 70 69 67 65 60 56 54 48 48 48 46
66 48 38 35 32 37 42 44 49 53 58 64 70 72 79 85 91 100 101 108 112 130 138 134 126 121 118 115 101 97 84 86 92 87 86 84 83 81 76 73 71 67 62 59 54 55 50 49 48
76 52 40 34 32 35 37 44 44 52 54 59 62 62 68 77 82 90 100 106 112 116 134 133 127 111 109 115 112 85 86 87 88 93 100 91 83 82 80 79 75 71 65 61 59 59 58 54 52
Wind_Direction
243 241 241 239 237 241 241 235 234 234 235 248 251 259 255 269 277 283 289 313 276 273 274 293 297 296 306 315 7 354 354 343 341 342 350 356 346 346 347 339 336 334 335 341 343 351 353 352 352
244 247 241 238 241 239 245 241 231 226 234 248 255 264 251 257 263 259 278 195 231 168 187 102 51 30 52 356 26 23 12 5 1 0 2 358 357 5 357 353 347 348 354 355 360 0 3 357 343
241 240 246 243 238 242 248 251 245 226 236 244 248 255 257 238 253 255 258 235 227 192 176 156 96 71 44 28 21 27 27 27 19 17 20 17 11 15 7 0 357 360 8 4 7 6 10 5 353
241 242 240 242 244 245 247 249 244 228 235 246 241 250 254 225 253 248 255 240 238 218 206 194 176 109 9 13 11 18 24 16 27 24 25 25 16 18 9 2 4 8 14 14 16 13 18 25 29
253 243 246 241 240 246 246 244 241 240 232 243 242 248 247 244 243 249 257 240 253 238 224 219 230 250 62 5 11 12 19 11 19 23 24 26 22 20 17 10 14 16 26 24 32 32 34 37 33
242 234 244 248 244 243 247 249 243 237 238 246 249 244 245 250 243 237 249 248 246 248 242 248 250 248 301 328 9 12 21 13 19 29 26 24 25 23 21 15 20 24 28 29 37 44 52 54 47
247 243 243 248 243 253 247 249 242 233 238 245 246 250 245 249 249 240 248 255 244 247 248 249 261 248 263 288 353 19 30 26 22 21 29 23 28 28 22 21 26 28 33 35 40 47 43 43 45
250 242 253 252 246 253 254 255 246 233 235 241 245 249 245 245 249 244 244 250 248 241 246 253 249 262 249 243 274 349 19 28 20 21 28 26 35 37 31 30 27 31 33 40 41 44 41 41 39
249 250 247 251 250 253 254 251 247 246 236 241 244 246 249 247 249 248 247 249 252 243 245 246 250 248 243 258 258 261 331 12 20 21 29 30 38 49 43 32 33 28 25 31 34 43 40 41 27
248 247 245 247 247 249 256 252 241 240 235 239 243 237 243 246 249 252 248 254 251 249 245 245 246 249 246 250 257 253 253 313 357 17 18 33 46 51 49 40 34 27 22 27 26 28 31 28 35
238 238 240 245 244 246 250 250 241 234 236 243 248 245 240 242 250 254 252 250 253 253 249 249 245 246 246 246 247 246 251 250 285 341 8 21 23 19 34 41 39 34 26 22 25 20 20 22 29
237 231 233 237 241 244 245 248 244 241 235 238 246 246 237 240 242 248 246 248 251 253 250 248 244 243 244 245 252 244 247 243 248 266 317 349 8 1 7 19 34 35 31 25 22 15 13 19 22
243 242 239 236 235 236 238 240 240 242 240 232 244 242 237 229 241 242 241 242 243 252 251 249 246 246 245 244 249 254 246 246 242 238 245 271 323 354 360 13 18 23 30 30 34 33 21 11 6
248 246 246 244 242 241 238 235 237 241 242 236 241 238 236 230 232 240 239 237 239 242 248 249 249 247 247 245 249 250 254 247 247 238 236 231 263 303 335 356 2 13 33 32 36 44 41 34 11
254 250 248 249 247 243 242 239 241 237 239 238 237 243 232 229 225 233 240 239 236 239 242 248 252 253 249 248 247 247 249 253 249 252 244 240 239 264 307 320 346 354 9 12 23 35 40 47 42
255 256 254 255 253 253 247 238 239 239 238 238 237 238 240 229 223 230 238 237 234 235 239 241 251 249 248 248 243 245 248 249 254 254 250 237 247 259 272 286 303 324 338 347 7 9 25 42 53
260 257 257 255 255 254 252 243 246 245 239 239 238 238 236 237 225 230 232 239 237 235 232 231 237 238 240 243 243 243 243 249 249 253 253 252 254 250 256 267 280 290 309 321 328 354 9 18 37
263 260 254 249 250 252 252 251 243 244 243 238 239 238 238 236 235 226 230 233 237 233 231 228 230 239 240 241 247 245 245 246 248 247 248 250 249 251 256 252 269 274 284 298 311 323 331 351 3
281 278 273 263 249 247 249 251 245 243 241 240 236 238 237 237 235 235 230 229 237 235 228 230 231 238 243 243 243 245 243 243 243 247 247 250 246 257 253 249 250 262 275 276 287 304 309 321 332
287 282 272 262 256 248 244 245 244 244 242 241 241 237 237 237 236 235 235 228 231 235 233 225 231 235 239 240 237 241 239 241 242 245 250 250 251 251 250 252 246 249 259 267 270 284 296 299 311
293 279 272 264 256 249 247 245 243 242 241 242 241 240 235 237 238 235 232 232 231 232 235 229 226 232 235 237 237 236 240 241 244 244 246 246 244 247 249 251 250 249 252 261 264 274 281 288 293
297 283 273 264 255 249 248 241 238 234 235 236 235 234 233 231 232 233 228 228 228 228 232 233 225 226 231 235 235 233 236 233 233 236 236 239 242 245 251 250 251 247 248 257 261 266 267 279 288
303 287 275 266 257 248 248 243 240 237 236 239 239 238 237 233 228 232 235 229 229 228 226 229 226 222 229 236 237 236 231 234 233 234 236 239 242 242 246 246 249 250 246 252 259 258 261 267 275
311 294 279 269 261 252 246 245 239 238 235 233 236 238 239 238 233 228 229 231 231 231 233 231 229 225 224 232 238 241 236 235 235 237 236 237 236 236 240 246 249 254 252 251 257 260 262 261 266
317 300 289 277 265 256 247 245 240 239 236 235 234 236 237 237 234 231 227 230 231 231 229 229 231 226 224 226 236 236 237 235 239 239 239 239 240 240 242 244 247 251 257 256 257 262 253 260 261
325 312 296 281 269 259 249 246 237 239 237 234 234 233 235 233 234 229 226 226 230 230 230 228 228 226 223 224 231 238 236 234 236 243 243 243 243 245 247 249 251 251 255 259 259 257 252 250 255
331 319 306 286 272 262 252 248 243 238 238 234 233 233 232 231 231 228 227 226 227 229 231 231 229 229 222 223 227 240 243 244 242 242 244 246 245 248 250 250 251 252 251 257 258 255 256 253 255
337 324 316 297 280 264 255 249 245 245 244 241 238 238 236 233 232 230 226 225 226 228 229 234 232 226 225 219 221 229 239 243 244 243 241 244 245 247 250 252 251 251 252 253 256 255 255 256 258
342 328 320 303 283 270 259 253 249 244 239 239 240 237 236 234 233 232 231 228 229 228 228 230 233 226 223 222 221 228 241 247 243 243 240 240 242 246 245 248 251 251 252 251 252 254 254 256 258
344 333 323 308 289 276 268 258 254 244 241 239 240 238 236 236 233 231 230 228 227 228 229 229 233 229 222 221 218 208 223 240 245 248 245 239 241 245 243 246 247 251 251 252 251 251 254 255 258
Height
10842 10848 10854 10860 10863 10860 10852 10861 10866 10875 10872 10867 10867 10869 10881 10881 10884 10883 10881 10883 10884 10884 10885 10885 10884 10883 10881 10880 10878 10878 10877 10876 10874 10872 10869 10866 10865 10862 10859 10857 10855 10852 10850 10847 10845 10843 10842 10840 10839
10835 10842 10847 10851 10854 10846 10851 10854 10868 10871 10869 10865 10865 10862 10878 10882 10882 10879 10881 10883 10883 10884 10884 10884 10884 10883 10881 10880 10878 10878 10877 10875 10873 10871 10869 10867 10864 10861 10858 10857 10854 10852 10850 10847 10844 10843 10842 10841 10839
10828 10834 10841 10845 10846 10836 10840 10853 10863 10866 10863 10857 10861 10857 10872 10880 10877 10877 10880 10882 10882 10883 10883 10883 10884 10884 10883 10881 10880 10879 10878 10875 10873 10872 10869 10866 10863 10860 10858 10856 10855 10853 10850 10848 10846 10844 10842 10841 10839
10821 10827 10835 10838 10837 10829 10835 10846 10853 10859 10857 10847 10853 10855 10864 10877 10870 10876 10877 10881 10881 10882 10882 10882 10883 10883 10883 10882 10881 10879 10878 10876 10873 10872 10869 10866 10864 10861 10859 10857 10855 10853 10851 10848 10847 10844 10842 10841 10839
10812 10819 10826 10829 10828 10820 10824 10832 10842 10853 10852 10843 10848 10852 10859 10869 10871 10875 10872 10879 10878 10881 10882 10882 10882 10883 10883 10884 10883 10881 10879 10877 10874 10872 10870 10868 10865 10862 10860 10858 10856 10854 10851 10849 10847 10845 10843 10841 10840
10799 10808 10816 10819 10819 10813 10813 10821 10840 10847 10850 10845 10842 10847 10857 10862 10862 10873 10868 10874 10874 10878 10880 10881 10882 10882 10883 10883 10883 10882 10880 10877 10875 10873 10871 10869 10866 10863 10861 10858 10856 10854 10852 10850 10848 10846 10844 10842 10842
10790 10801 10805 10809 10809 10810 10801 10809 10829 10838 10840 10835 10835 10841 10855 10855 10853 10864 10865 10863 10871 10874 10877 10879 10880 10881 10882 10883 10883 10883 10881 10878 10876 10874 10872 10871 10867 10864 10861 10860 10857 10856 10853 10851 10849 10846 10845 10844 10843
10777 10791 10794 10797 10798 10797 10789 10802 10813 10828 10830 10823 10826 10836 10850 10846 10844 10853 10862 10856 10863 10870 10872 10875 10877 10879 10880 10880 10881 10882 10881 10879 10877 10875 10873 10872 10869 10866 10863 10861 10859 10857 10855 10852 10850 10848 10847 10846 10846
10765 10779 10781 10779 10783 10782 10778 10793 10799 10815 10824 10815 10818 10837 10841 10839 10834 10844 10854 10854 10855 10865 10866 10870 10874 10875 10877 10878 10879 10880 10880 10879 10878 10875 10874 10872 10871 10868 10865 10863 10860 10858 10857 10854 10852 10850 10849 10849 10847
10751 10762 10765 10764 10771 10773 10771 10783 10788 10798 10814 10808 10806 10822 10823 10825 10828 10836 10850 10849 10849 10858 10861 10865 10868 10871 10873 10875 10876 10877 10877 10877 10877 10876 10875 10873 10872 10870 10868 10866 10862 10859 10857 10854 10853 10851 10850 10849 10848
10738 10746 10746 10749 10754 10760 10762 10767 10772 10785 10795 10796 10794 10806 10814 10820 10822 10828 10840 10845 10843 10848 10855 10856 10861 10865 10868 10870 10872 10873 10874 10875 10875 10875 10874 10874 10872 10871 10869 10867 10865 10862 10858 10855 10854 10852 10851 10850 10849
10723 10725 10726 10733 10738 10746 10751 10751 10759 10772 10780 10780 10778 10785 10800 10806 10813 10815 10828 10835 10837 10837 10847 10848 10853 10857 10862 10865 10867 10869 10870 10871 10872 10873 10873 10872 10872 10870 10869 10867 10865 10863 10860 10857 10855 10853 10852 10851 10850
10700 10703 10711 10714 10718 10722 10725 10728 10740 10752 10753 10759 10759 10770 10780 10794 10800 10804 10813 10822 10828 10829 10834 10840 10845 10848 10853 10858 10861 10863 10864 10866 10868 10869 10870 10870 10870 10870 10869 10867 10866 10864 10862 10859 10856 10854 10853 10851 10850
10679 10691 10692 10692 10694 10697 10702 10706 10718 10735 10731 10744 10746 10752 10760 10773 10785 10791 10797 10809 10813 10819 10823 10830 10834 10839 10845 10850 10852 10856 10859 10860 10863 10864 10866 10867 10867 10867 10867 10867 10866 10864 10863 10860 10858 10854 10852 10851 10850
10662 10667 10672 10676 10672 10676 10666 10688 10707 10710 10706 10718 10730 10731 10741 10754 10766 10778 10780 10790 10804 10808 10814 10821 10826 10832 10838 10838 10845 10848 10852 10855 10857 10859 10861 10863 10863 10864 10865 10865 10865 10864 10863 10861 10859 10857 10854 10851 10849
10644 10650 10654 10651 10646 10650 10639 10678 10688 10688 10687 10699 10703 10713 10719 10736 10747 10759 10765 10769 10785 10797 10802 10810 10809 10813 10824 10828 10835 10840 10844 10848 10849 10852 10855 10857 10859 10859 10861 10863 10862 10863 10861 10861 10859 10858 10856 10854 10850
10622 10631 10629 10639 10622 10625 10621 10654 10668 10669 10675 10676 10679 10689 10699 10714 10729 10742 10750 10752 10766 10781 10787 10799 10798 10793 10801 10818 10822 10828 10835 10839 10841 10845 10847 10851 10853 10855 10856 10858 10859 10859 10859 10859 10858 10857 10856 10855 10852
10605 10608 10605 10611 10602 10592 10595 10601 10636 10633 10634 10646 10652 10665 10683 10697 10713 10719 10730 10735 10741 10761 10774 10778 10778 10777 10787 10807 10807 10819 10825 10829 10833 10833 10838 10843 10846 10849 10850 10852 10854 10854 10856 10855 10855 10854 10854 10853 10852
10577 10574 10573 10572 10575 10562 10567 10560 10596 10605 10609 10609 10627 10640 10652 10665 10687 10702 10716 10723 10726 10736 10754 10765 10769 10773 10775 10794 10798 10804 10810 10815 10821 10823 10830 10836 10840 10841 10843 10845 10848 10849 10850 10851 10851 10852 10851 10850 10849
10547 10532 10533 10535 10537 10527 10534 10535 10560 10575 10578 10580 10593 10614 10632 10644 10661 10678 10690 10702 10709 10714 10727 10742 10757 10758 10759 10770 10784 10784 10795 10803 10809 10816 10822 10829 10830 10830 10834 10837 10841 10842 10844 10846 10846 10847 10847 10846 10845
10511 10494 10488 10495 10495 10496 10489 10504 10523 10542 10554 10557 10567 10578 10601 10621 10634 10644 10658 10670 10681 10691 10699 10717 10731 10738 10739 10749 10759 10769 10779 10794 10804 10808 10811 10813 10818 10819 10825 10829 10832 10835 10837 10839 10841 10842 10843 10842 10840
10477 10461 10460 10456 10461 10463 10452 10476 10486 10500 10510 10508 10513 10518 10538 10563 10577 10590 10610 10620 10641 10662 10669 10681 10701 10719 10725 10729 10739 10757 10764 10777 10785 10787 10792 10798 10806 10813 10816 10821 10822 10827 10829 10830 10834 10836 10836 10837 10836
10446 10440 10432 10431 10431 10438 10421 10445 10456 10461 10472 10482 10485 10496 10514 10534 10554 10573 10592 10613 10622 10630 10639 10642 10674 10701 10711 10720 10728 10740 10754 10762 10769 10774 10784 10790 10795 10804 10806 10810 10813 10816 10821 10822 10825 10828 10829 10831 10831
10425 10417 10413 10409 10408 10413 10410 10416 10425 10433 10448 10452 10461 10475 10493 10515 10537 10547 10562 10585 10599 10619 10635 10644 10664 10689 10703 10711 10717 10730 10744 10754 10759 10767 10775 10780 10782 10791 10796 10798 10804 10805 10811 10814 10816 10820 10822 10823 10824
10408 10401 10393 10391 10389 10389 10393 10393 10409 10405 10418 10425 10436 10450 10466 10489 10509 10525 10541 10558 10570 10584 10603 10617 10638 10676 10693 10704 10702 10713 10725 10741 10748 10756 10765 10771 10774 10781 10785 10786 10792 10796 10798 10805 10808 10810 10813 10814 10815
10393 10385 10380 10373 10371 10369 10374 10372 10381 10383 10387 10399 10404 10422 10431 10458 10475 10490 10511 10532 10543 10559 10571 10592 10609 10641 10674 10691 10696 10701 10711 10725 10739 10745 10757 10762 10768 10766 10769 10777 10780 10787 10788 10791 10799 10800 10801 10804 10805
10378 10371 10365 10360 10356 10354 10355 10356 10362 10361 10366 10375 10383 10394 10409 10426 10440 10459 10485 10499 10513 10529 10539 10557 10580 10616 10643 10672 10690 10701 10707 10720 10732 10737 10743 10750 10757 10757 10762 10764 10768 10771 10780 10779 10785 10791 10789 10794 10796
10374 10360 10352 10349 10344 10339 10338 10341 10344 10350 10356 10359 10369 10381 10395 10409 10421 10440 10457 10471 10486 10501 10513 10522 10561 10594 10624 10660 10679 10685 10692 10696 10706 10716 10729 10734 10738 10742 10752 10756 10758 10759 10766 10772 10772 10778 10780 10781 10785
10365 10352 10344 10338 10335 10328 10326 10329 10331 10336 10340 10344 10349 10367 10378 10389 10405 10421 10441 10457 10465 10478 10489 10509 10531 10571 10606 10635 10660 10668 10669 10682 10685 10690 10705 10716 10717 10724 10737 10743 10748 10751 10755 10760 10766 10764 10769 10771 10773
10358 10343 10336 10328 10325 10319 10318 10314 10319 10316 10324 10330 10336 10351 10361 10370 10383 10398 10413 10428 10441 10455 10473 10498 10511 10544 10586 10603 10633 10649 10663 10664 10671 10673 10681 10697 10706 10705 10717 10725 10734 10738 10747 10749 10753 10755 10755 10760 10762